Weather History for Cairo, Egypt

Change the Weather History Date:

Wednesday, May 29, 2013

  Actual Average Record
Temperature  
Mean Temperature 90 °F -  
Max Temperature 105 °F 91 °F 105 °F (2003)
Min Temperature 75 °F 69 °F 66 °F (1999)
Cooling Degree Days 25    
Growing Degree Days 40 (Base 50)    
Moisture  
Dew Point 28 °F    
Average Humidity 11    
Maximum Humidity 19    
Minimum Humidity 4    
Precipitation  
Precipitation 0.00 in 0.00 in - ()
Sea Level Pressure  
Sea Level Pressure 29.83 in    
Wind  
Wind Speed 8 mph ()    
Max Wind Speed 22 mph    
Max Gust Speed -    
Visibility 6.0 miles    
Events      
Averages and records for this station are not official NWS values.
T = Trace of Precipitation, MM = Missing Value Source: Averaged Metar Reports

Daily Weather History Graph

Daily Weather History Graph

Search for Another Location

Airport:

Trip Planner

Search our weather history database for the weather conditions in past years. The results will help you decide how hot, cold, wet, or windy it might be!

Date:

Astronomy

May. 29, 2013 Rise Set
Actual Time 4:54 AM EET 6:49 PM EET
Civil Twilight 4:27 AM EET 7:16 PM EET
Nautical Twilight 3:54 AM EET 7:49 PM EET
Astronomical Twilight 3:20 AM EET 8:23 PM EET
Moon 10:51 PM EET (5/29) 9:20 AM EET (5/29)
Length of Visible Light 14h 49m
Length of Day
13h 55m
Waning Gibbous, 76% of the Moon is Illuminated
May 29
Waning Gibbous
May 31
Last Quarter
Jun 8
New
Jun 16
First Quarter
Jun 23
Full

Hourly Weather History & Observations

Time (EET) Temp. Dew Point Humidity Pressure Visibility Wind Dir Wind Speed Gust Speed Precip Events Conditions
12:00 AM 80.6 °F 32.0 °F 17% 29.95 in - ESE 8.1 mph - N/A   Clear
12:30 AM 80.6 °F 32.0 °F 17% 29.95 in - ESE 8.1 mph - N/A   Clear
1:00 AM 82.4 °F 32.0 °F 16% 29.92 in - ESE 9.2 mph - N/A   Clear
1:30 AM 82.4 °F 32.0 °F 16% 29.92 in - ESE 9.2 mph - N/A   Clear
2:00 AM 78 °F 28 °F 8% 29.94 in 6 mi NNE 5.8 mph - -  
2:00 AM 78.8 °F 28.4 °F 16% 29.92 in - NNE 5.8 mph - N/A   Clear
2:30 AM 77.0 °F 30.2 °F 18% 29.89 in - NNE 5.8 mph - N/A   Clear
3:00 AM 75.2 °F 30.2 °F 19% 29.89 in - NNE 8.1 mph - N/A   Clear
3:30 AM 75.2 °F 28.4 °F 18% 29.89 in - ENE 5.8 mph - N/A   Clear
4:00 AM 75.2 °F 28.4 °F 18% 29.89 in - ENE 5.8 mph - N/A   Clear
4:30 AM 75.2 °F 26.6 °F 17% 29.89 in - East 4.6 mph - N/A   Clear
5:00 AM 77.0 °F 26.6 °F 16% 29.86 in - East 12.7 mph - N/A   Clear
5:30 AM 78.8 °F 26.6 °F 15% 29.86 in - East 9.2 mph - N/A   Clear
6:00 AM 77.0 °F 26.6 °F 16% 29.89 in - ENE 5.8 mph - N/A   Clear
6:30 AM 78.8 °F 28.4 °F 16% 29.89 in - NNE 8.1 mph - N/A   Clear
7:00 AM 80.6 °F 28.4 °F 15% 29.92 in - NNE 10.4 mph - N/A   Clear
7:30 AM 84.2 °F 28.4 °F 13% 29.92 in - NE 10.4 mph - N/A   Clear
8:00 AM 86 °F 28 °F 6% 29.91 in 6 mi ENE 11.5 mph - -  
8:00 AM 86.0 °F 26.6 °F 12% 29.92 in - ENE 11.5 mph - N/A   Clear
8:30 AM 89.6 °F 26.6 °F 10% 29.89 in - East 17.3 mph - N/A   Clear
9:00 AM 91.4 °F 26.6 °F 10% 29.89 in - ENE 18.4 mph - N/A   Clear
9:30 AM 93.2 °F 28.4 °F 10% 29.89 in - ENE 21.9 mph - N/A   Clear
10:00 AM 95.0 °F 26.6 °F 9% 29.89 in - ENE 20.7 mph - N/A   Clear
10:30 AM 95.0 °F 28.4 °F 9% 29.89 in - East 18.4 mph - N/A   Clear
11:00 AM 96.8 °F 28.4 °F 9% 29.89 in - East 18.4 mph - N/A   Clear
11:30 AM 98.6 °F 26.6 °F 8% 29.86 in - East 15.0 mph - N/A   Clear
12:00 PM 98.6 °F 26.6 °F 8% 29.86 in - East 15.0 mph - N/A   Clear
12:30 PM 100.4 °F 24.8 °F 7% 29.83 in - East 10.4 mph - N/A   Clear
1:00 PM 102.2 °F 23.0 °F 6% 29.83 in - SE 8.1 mph - N/A   Clear
1:30 PM 102.2 °F 23.0 °F 6% 29.83 in - East 6.9 mph - N/A   Clear
2:00 PM 104 °F 24 °F 4% 29.81 in 6 mi ESE 8.1 mph - -  
2:00 PM 104.0 °F 23.0 °F 6% 29.80 in - ESE 8.1 mph - N/A   Clear
2:30 PM 104.0 °F 24.8 °F 6% 29.80 in - SE 6.9 mph - N/A   Clear
3:00 PM 104.0 °F 24.8 °F 6% 29.80 in - SE 6.9 mph - N/A   Clear
3:30 PM 105.8 °F 21.2 °F 5% 29.77 in - ESE 4.6 mph - N/A   Clear
4:00 PM 105.8 °F 21.2 °F 5% 29.77 in - SSE 4.6 mph - N/A   Clear
4:30 PM 105.8 °F 24.8 °F 6% 29.74 in - SSW 9.2 mph - N/A   Clear
5:00 PM 105.8 °F 23.0 °F 5% 29.74 in - SSW 10.4 mph - N/A   Clear
5:30 PM 104.0 °F 23.0 °F 6% 29.74 in - SSW 9.2 mph - N/A   Clear
6:00 PM 104.0 °F 26.6 °F 7% 29.74 in - SSW 6.9 mph - N/A   Clear
6:30 PM 102.2 °F 26.6 °F 7% 29.74 in - SW 4.6 mph - N/A   Clear
7:00 PM 102.2 °F 28.4 °F 7% 29.74 in - WSW 4.6 mph - N/A   Clear
7:30 PM 100.4 °F 28.4 °F 8% 29.74 in - South 4.6 mph - N/A   Clear
8:00 PM 97 °F 29 °F 4% 29.74 in 6 mi South 5.8 mph - -  
8:00 PM 96.8 °F 28.4 °F 9% 29.74 in - South 5.8 mph - N/A   Clear
8:30 PM 95.0 °F 30.2 °F 10% 29.74 in - South 5.8 mph - N/A   Clear
9:00 PM 93.2 °F 32.0 °F 11% 29.74 in - SSE 8.1 mph - N/A   Clear
9:30 PM 95.0 °F 33.8 °F 12% 29.74 in - SE 8.1 mph - N/A   Clear
10:00 PM 93.2 °F 32.0 °F 11% 29.74 in - ESE 11.5 mph - N/A   Clear
10:30 PM 93.2 °F 30.2 °F 11% 29.74 in - SE 10.4 mph - N/A   Clear
11:00 PM 93.2 °F 32.0 °F 11% 29.71 in - SSE 11.5 mph - N/A   Clear
11:30 PM 93.2 °F 32.0 °F 11% 29.71 in - SSE 13.8 mph - N/A   Clear